Home   Weather   Giridih   Past weeks

Flag for India Past Weather in Giridih, Jharkhand, India — Yesterday and Last 2 Weeks

Now
88 °F

Fog.


Feels Like: 112 °F
Forecast: 77 / 87 °F
Wind: 3 mph from Southeast

Location: Lucknow / Amausi

Current Time: Aug 18, 2017 at 10:25:23 am

Latest Report: Aug 18, 2017 at 10:00 am


Visibility: 2 mi

Pressure: 29.59 "Hg

Humidity: 89%

Dew Point: 84 °F

Location of GiridihLocation

Past Weather in Giridih — Graph

°F

Giridih Temperature Yesterday

Maximum temperature yesterday: 99 °F (at 3:00 pm)
Minimum temperature yesterday: 82 °F (at 5:00 am)
Average temperature yesterday: 90 °F

High & Low Weather Summary for the Past Weeks

 TemperatureHumidityPressure
High99 °F (Aug 17, 3:00 pm)100% (Aug 3, 11:00 pm)29.74 "Hg (Aug 3, 11:00 pm)
Low81 °F (Aug 7, 6:00 am)57% (Aug 17, 3:00 pm)29.42 "Hg (Aug 3, 6:30 pm)
Average87 °F88%29.55 "Hg
* Reported Aug 3 8:30 am — Aug 18 9:00 am, Giridih. Weather by CustomWeather, © 2017

Note: Actual official high and low records may vary slightly from our data, if they occured in-between our weather recording intervals... More about our weather records

Advertising

Giridih Weather History for the Previous 24 Hours

Scroll right to see more
 ConditionsComfort  
Time TempWeatherWind HumidityBarometerVisibility
9:00 am
Fri, Aug 18
86 °FFog.3 mph94%29.59 "Hg2 mi
8:30 am86 °FFog.3 mph94%29.59 "Hg2 mi
8:00 am86 °FFog.6 mph94%29.56 "Hg2 mi
6:30 am84 °FFog.2 mph100%29.53 "Hg2 mi
6:00 am84 °FFog.2 mph100%29.53 "Hg2 mi
5:30 am84 °FFog.2 mph100%29.53 "Hg2 mi
5:00 am84 °FFog.2 mph100%29.53 "Hg2 mi
4:00 am84 °FFog.2 mph100%29.53 "Hg2 mi
3:00 am86 °FFog.2 mph94%29.53 "Hg2 mi
2:00 am86 °FFog.No wind94%29.53 "Hg2 mi
1:00 am86 °FFog.No wind94%29.53 "Hg2 mi
12:00 am86 °FFog.No wind94%29.56 "Hg2 mi
11:00 pm
Thu, Aug 17
86 °FPartly cloudy.No wind89%29.56 "Hg2 mi
10:00 pm86 °FPartly cloudy.2 mph89%29.53 "Hg2 mi
9:00 pm88 °FPartly cloudy.2 mph84%29.53 "Hg2 mi
8:30 pm88 °FPartly cloudy.2 mph89%29.50 "Hg2 mi
8:00 pm90 °FPartly cloudy.2 mph84%29.50 "Hg2 mi
7:30 pm90 °FPartly cloudy.2 mph79%29.50 "Hg2 mi
7:00 pm91 °FBroken clouds.2 mph75%29.50 "Hg2 mi
6:30 pm93 °FBroken clouds.No wind71%29.47 "Hg2 mi
6:00 pm93 °FBroken clouds.No wind67%29.47 "Hg2 mi
5:30 pm95 °FBroken clouds.No wind63%29.47 "Hg2 mi
5:00 pm95 °FBroken clouds.2 mph60%29.47 "Hg2 mi
4:30 pm95 °FBroken clouds.2 mph60%29.47 "Hg2 mi
4:00 pm97 °FBroken clouds.5 mph60%29.47 "Hg2 mi
3:30 pm99 °FScattered clouds.5 mph57%29.50 "Hg2 mi
3:00 pm99 °FScattered clouds.5 mph57%29.50 "Hg2 mi
2:30 pm97 °FScattered clouds.5 mph60%29.50 "Hg2 mi
2:00 pm97 °FScattered clouds.3 mph63%29.53 "Hg2 mi
1:30 pm97 °FScattered clouds.3 mph60%29.53 "Hg2 mi
1:00 pm93 °FBroken clouds.3 mph67%29.56 "Hg2 mi
12:30 pm93 °FBroken clouds.3 mph67%29.56 "Hg2 mi
12:00 pm93 °FBroken clouds.3 mph67%29.56 "Hg2 mi
11:30 am93 °FFog.3 mph67%29.56 "Hg2 mi
11:00 am91 °FFog.3 mph80%29.56 "Hg2 mi
10:30 am90 °FFog.3 mph84%29.59 "Hg2 mi
10:00 am90 °FFog.3 mph84%29.59 "Hg2 mi
Weather by CustomWeather, © 2017

See weather overviewHow to use our weather pages